| time (UTC) | temp C | wind direction | speed KPH | gust KPH | rain 1hr cm | rain 24hr cm | rain mn cm | humidity % | barometer mb |
| 20260505041600 | 10 | 296 | 0.0 | 3.2 | 0.00 | 0.00 | 0.00 | 100 | |
| 20260505040100 | 9 | 227 | 0.0 | 0.0 | 0.00 | 0.00 | 0.00 | 100 | |
| 20260505034601 | 9 | 227 | 0.0 | 0.0 | 0.00 | 0.00 | 0.00 | 100 | |
| 20260505033101 | 8 | 227 | 0.0 | 0.0 | 0.00 | 0.00 | 0.00 | 100 | |
| 20260505031601 | 8 | 227 | 0.0 | 0.0 | 0.00 | 0.00 | 0.00 | 100 | |
| 20260505030101 | 8 | 227 | 0.0 | 0.0 | 0.00 | 0.00 | 0.00 | 100 | |
| 20260505024601 | 8 | 227 | 0.0 | 0.0 | 0.00 | 0.00 | 0.00 | 100 | |
| 20260505023101 | 8 | 250 | 3.2 | 3.2 | 0.00 | 0.00 | 0.00 | 100 | |
| 20260505021601 | 8 | 253 | 0.0 | 0.0 | 0.00 | 0.00 | 0.00 | 100 | |
| 20260505020101 | 8 | 324 | 0.0 | 0.0 | 0.00 | 0.00 | 0.00 | 100 | |
| 20260505014601 | 8 | 0 | 3.2 | 3.2 | 0.00 | 0.00 | 0.00 | 100 | |
| 20260505013101 | 9 | 243 | 0.0 | 0.0 | 0.00 | 0.00 | 0.00 | 100 | |
| 20260505011601 | 8 | 243 | 0.0 | 0.0 | 0.00 | 0.00 | 0.00 | 100 | |
| 20260505004601 | 8 | 243 | 0.0 | 0.0 | 0.00 | 0.00 | 0.00 | 100 | |
| 20260505003101 | 8 | 243 | 0.0 | 0.0 | 0.00 | 0.00 | 0.00 | 100 | |
| 20260505001601 | 8 | 243 | 0.0 | 0.0 | 0.00 | 0.00 | 0.00 | 100 | |
| 20260504234601 | 8 | 243 | 0.0 | 0.0 | 0.00 | 0.00 | 0.00 | 100 | |
| 20260504233101 | 8 | 243 | 0.0 | 0.0 | 0.00 | 0.00 | 0.00 | 100 | |
| 20260504231601 | 8 | 243 | 0.0 | 0.0 | 0.00 | 0.00 | 0.00 | 100 | |
| 20260504224602 | 8 | 243 | 0.0 | 0.0 | 0.00 | 0.00 | 0.00 | 100 | |
| 20260504223102 | 9 | 243 | 0.0 | 0.0 | 0.00 | 0.00 | 0.00 | 100 | |
| 20260504221602 | 9 | 243 | 0.0 | 0.0 | 0.00 | 0.00 | 0.00 | 100 | |
| 20260504214602 | 10 | 243 | 0.0 | 0.0 | 0.00 | 0.00 | 0.00 | 100 | |
| 20260504213102 | 10 | 243 | 0.0 | 0.0 | 0.00 | 0.00 | 0.00 | 100 | |
| 20260504211602 | 10 | 243 | 0.0 | 0.0 | 0.00 | 0.00 | 0.00 | 100 | |
| 20260504204602 | 10 | 243 | 0.0 | 0.0 | 0.00 | 0.00 | 0.00 | 100 | |
| 20260504203102 | 11 | 243 | 0.0 | 0.0 | 0.00 | 0.00 | 0.00 | 100 | |
| 20260504201602 | 11 | 327 | 0.0 | 0.0 | 0.00 | 0.00 | 0.00 | 100 | |
| 20260504194602 | 12 | 327 | 0.0 | 0.0 | 0.00 | 0.00 | 0.00 | 100 | |
| 20260504193102 | 13 | 327 | 0.0 | 0.0 | 0.00 | 0.00 | 0.00 | 100 | |
| 20260504191602 | 13 | 327 | 0.0 | 0.0 | 0.00 | 0.00 | 0.00 | 100 | |
| 20260504184602 | 15 | 327 | 0.0 | 0.0 | 0.00 | 0.00 | 0.00 | 100 | |
| 20260504183102 | 16 | 327 | 0.0 | 0.0 | 0.00 | 0.00 | 0.00 | 100 | |
| 20260504181602 | 16 | 33 | 0.0 | 0.0 | 0.00 | 0.00 | 0.00 | 100 | |
| 20260504174603 | 17 | 9 | 3.2 | 9.7 | 0.00 | 0.00 | 0.00 | 100 | |
| 20260504173103 | 20 | 307 | 0.0 | 9.7 | 0.00 | 0.00 | 0.00 | 100 | |
| 20260504171603 | 22 | 326 | 0.0 | 9.7 | 0.00 | 0.00 | 0.00 | 100 | |
| 20260504150103 | 18 | 341 | 4.8 | 16.1 | 0.00 | 0.00 | 0.00 | 100 | |
| 20260504140103 | 17 | 21 | 3.2 | 20.9 | 0.00 | 0.00 | 0.00 | 100 | |
| 20260504130104 | 18 | 337 | 16.1 | 19.3 | 0.00 | 0.00 | 0.00 | 100 | |
| 20260504120104 | 17 | 331 | 9.7 | 25.7 | 0.00 | 0.00 | 0.00 | 100 | |
| 20260504110104 | 16 | 326 | 9.7 | 33.8 | 0.00 | 0.00 | 0.00 | 100 | |
| 20260504100104 | 16 | 337 | 25.7 | 33.8 | 0.00 | 0.00 | 0.00 | 100 | |
| 20260504090104 | 17 | 345 | 12.9 | 33.8 | 0.00 | 0.00 | 0.00 | 100 | |
| 20260504081605 | 18 | 282 | 30.6 | 30.6 | 0.00 | 0.00 | 0.00 | 100 | |
| 20260504080105 | 18 | 274 | 14.5 | 30.6 | 0.00 | 0.00 | 0.00 | 100 | |
| 20260504070105 | 17 | 309 | 20.9 | 37.0 | 0.00 | 0.00 | 0.00 | 100 | |
| 20260504060105 | 16 | 303 | 14.5 | 24.1 | 0.00 | 0.00 | 0.00 | 100 | |
| 20260504050105 | 15 | 310 | 6.4 | 20.9 | 0.00 | 0.00 | 0.00 | 100 |